WBANNO,USDM_WEEK,LONGITUDE,LATITUDE,SMVWC_5_CM_MEAN,SMANOM_5_CM_MEAN,SMPERC_5_CM_30COUNTS,SMPERC_5_CM_70COUNTS,SMVWC_10_CM_MEAN,SMANOM_10_CM_MEAN,SMPERC_10_CM_30COUNTS,SMPERC_10_CM_70COUNTS,SMVWC_20_CM_MEAN,SMANOM_20_CM_MEAN,SMPERC_20_CM_30COUNTS,SMPERC_20_CM_70COUNTS,SMVWC_50_CM_MEAN,SMANOM_50_CM_MEAN,SMPERC_50_CM_30COUNTS,SMPERC_50_CM_70COUNTS,SMVWC_100_CM_MEAN,SMANOM_100_CM_MEAN,SMPERC_100_CM_30COUNTS,SMPERC_100_CM_70COUNTS,SMVWC_TOP_CM_MEAN,SMANOM_TOP_CM_MEAN,SMPERC_TOP_CM_30COUNTS,SMPERC_TOP_CM_70COUNTS,SMVWC_COLUMN_CM_MEAN,SMANOM_COLUMN_CM_MEAN,SMPERC_COLUMN_CM_30COUNTS,SMPERC_COLUMN_CM_70COUNTS
63856,20100127,-81.46,30.81,,,,,,,,,,,,,,,,,,,,,,,,,,,,
63856,20100128,-81.46,30.81,,,,,,,,,,,,,,,,,,,,,,,,,,,,
63856,20100129,-81.46,30.81,,,,,,,,,,,,,,,,,,,,,,,,,,,,
63856,20100130,-81.46,30.81,,,,,,,,,,,,,,,,,,,,,,,,,,,,
63856,20100131,-81.46,30.81,,,,,,,,,,,,,,,,,,,,,,,,,,,,
63856,20100201,-81.46,30.81,,,,,,,,,,,,,,,,,,,,,,,,,,,,
63856,20100202,-81.46,30.81,0.094,0.63,0,1,0.08,-0.11,0,0,0.085,-0.28,0.245,0,0.058,-0.43,0.761,0,0.072,0.13,0,0.135,0.087,0.3,0,0.49,0.078,0.01,0,0
63856,20100203,-81.46,30.81,0.097,0.71,0,1,0.081,-0.06,0,0.085,0.086,-0.24,0.232,0.03,0.057,-0.49,0.848,0,0.071,0.06,0,0.037,0.089,0.38,0,0.518,0.079,0.03,0,0.079
63856,20100204,-81.46,30.81,0.099,0.76,0,1,0.082,-0.03,0,0.083,0.086,-0.2,0.226,0.03,0.057,-0.5,0.857,0,0.07,-0.01,0,0,0.09,0.41,0,0.619,0.079,0.03,0,0.077
63856,20100205,-81.46,30.81,0.1,0.79,0,1,0.083,-0.01,0,0.083,0.087,-0.17,0.196,0.03,0.057,-0.48,0.756,0,0.068,-0.07,0,0,0.091,0.43,0,0.762,0.079,0.04,0,0.077
63856,20100206,-81.46,30.81,0.105,0.93,0,1,0.085,0.07,0,0.173,0.089,-0.03,0.071,0.113,0.057,-0.43,0.661,0,0.068,-0.1,0,0,0.095,0.56,0,0.905,0.081,0.13,0,0.167
63856,20100207,-81.46,30.81,0.106,0.96,0,1,0.087,0.13,0,0.262,0.092,0.1,0.006,0.256,0.059,-0.3,0.518,0.012,0.067,-0.12,0,0,0.097,0.6,0,0.935,0.082,0.18,0,0.304
63856,20100208,-81.46,30.81,0.107,0.97,0,1,0.088,0.15,0,0.262,0.093,0.18,0.006,0.304,0.06,-0.2,0.375,0.012,0.067,-0.12,0,0,0.097,0.61,0,0.935,0.083,0.21,0,0.31
63856,20100209,-81.46,30.81,0.107,0.97,0,1,0.088,0.17,0,0.262,0.094,0.24,0,0.304,0.061,-0.12,0.232,0.012,0.068,-0.08,0,0,0.098,0.61,0,0.94,0.084,0.24,0,0.31
63856,20100210,-81.46,30.81,0.105,0.9,0,1,0.087,0.12,0,0.179,0.093,0.2,0,0.274,0.061,-0.07,0.107,0.012,0.069,-0.04,0,0,0.096,0.53,0,0.899,0.083,0.22,0,0.232
63856,20100211,-81.46,30.81,0.105,0.86,0,1,0.086,0.1,0,0.179,0.092,0.17,0,0.274,0.061,-0.06,0.071,0.012,0.069,0.01,0,0,0.095,0.5,0,0.81,0.083,0.21,0,0.232
63856,20100212,-81.46,30.81,0.105,0.83,0,1,0.086,0.08,0,0.179,0.092,0.15,0,0.274,0.061,-0.07,0.071,0.012,0.07,0.05,0,0,0.095,0.47,0,0.667,0.083,0.2,0,0.232
63856,20100213,-81.46,30.81,0.106,0.86,0,1,0.087,0.13,0,0.19,0.094,0.23,0,0.286,0.062,0,0.042,0.065,0.07,0.09,0,0,0.097,0.51,0,0.643,0.084,0.26,0,0.25
63856,20100214,-81.46,30.81,0.107,0.85,0,1,0.088,0.16,0,0.226,0.095,0.29,0,0.286,0.064,0.09,0.042,0.196,0.071,0.14,0,0.012,0.098,0.52,0,0.643,0.085,0.31,0,0.256
63856,20100215,-81.46,30.81,0.107,0.84,0,1,0.089,0.18,0,0.226,0.095,0.32,0,0.333,0.065,0.15,0.042,0.298,0.072,0.25,0,0.155,0.098,0.53,0,0.643,0.086,0.36,0,0.393
63856,20100216,-81.46,30.81,0.108,0.84,0,1,0.089,0.19,0,0.226,0.096,0.33,0,0.333,0.066,0.2,0.042,0.315,0.074,0.36,0,0.298,0.099,0.54,0,0.696,0.086,0.39,0,0.494
63856,20100217,-81.46,30.81,0.107,0.81,0,1,0.09,0.19,0,0.226,0.096,0.34,0,0.333,0.066,0.24,0.042,0.315,0.075,0.46,0,0.44,0.098,0.53,0,0.595,0.087,0.41,0,0.494
63856,20100218,-81.46,30.81,0.107,0.79,0,1,0.089,0.18,0,0.226,0.096,0.33,0,0.333,0.067,0.27,0.042,0.315,0.076,0.53,0,0.583,0.098,0.52,0,0.542,0.087,0.42,0,0.494
63856,20100219,-81.46,30.81,0.106,0.77,0,0.911,0.089,0.17,0,0.226,0.096,0.32,0.018,0.333,0.067,0.3,0.018,0.315,0.077,0.59,0,0.667,0.098,0.52,0,0.542,0.087,0.43,0,0.494
63856,20100220,-81.46,30.81,0.1,0.58,0,0.768,0.085,0.03,0.03,0.125,0.092,0.12,0.155,0.238,0.066,0.22,0.048,0.262,0.077,0.64,0,0.679,0.093,0.34,0,0.423,0.084,0.3,0,0.387
63856,20100221,-81.46,30.81,0.096,0.47,0,0.625,0.082,-0.08,0.137,0,0.088,-0.09,0.298,0.095,0.063,0.02,0.155,0.119,0.077,0.65,0,0.667,0.089,0.23,0,0.28,0.081,0.17,0,0.244
63856,20100222,-81.46,30.81,0.093,0.39,0,0.482,0.08,-0.16,0.268,0,0.086,-0.23,0.44,0,0.06,-0.11,0.274,0.018,0.076,0.59,0,0.524,0.087,0.15,0,0.137,0.079,0.07,0,0.101
63856,20100223,-81.46,30.81,0.093,0.38,0,0.435,0.078,-0.2,0.327,0,0.084,-0.32,0.583,0,0.058,-0.22,0.417,0,0.075,0.48,0,0.381,0.086,0.12,0,0.06,0.078,0.01,0,0
63856,20100224,-81.46,30.81,0.093,0.4,0,0.435,0.078,-0.21,0.327,0,0.083,-0.37,0.72,0,0.057,-0.32,0.56,0,0.073,0.38,0,0.238,0.086,0.13,0,0.125,0.077,-0.03,0,0
63856,20100225,-81.46,30.81,0.094,0.44,0,0.435,0.078,-0.22,0.327,0,0.082,-0.41,0.863,0,0.056,-0.39,0.702,0,0.071,0.3,0,0.095,0.086,0.16,0,0.196,0.076,-0.05,0,0
63856,20100226,-81.46,30.81,0.095,0.49,0,0.524,0.078,-0.2,0.327,0,0.082,-0.42,0.964,0,0.055,-0.45,0.845,0,0.07,0.22,0,0.012,0.087,0.19,0,0.28,0.076,-0.05,0,0
63856,20100227,-81.46,30.81,0.096,0.54,0,0.667,0.078,-0.19,0.298,0,0.081,-0.42,0.929,0,0.054,-0.49,0.94,0,0.068,0.15,0,0,0.087,0.22,0,0.292,0.076,-0.06,0,0
63856,20100228,-81.46,30.81,0.097,0.57,0,0.81,0.078,-0.17,0.19,0,0.081,-0.41,0.929,0,0.054,-0.53,0.976,0,0.067,0.1,0,0,0.088,0.25,0,0.292,0.076,-0.06,0,0
63856,20100301,-81.46,30.81,0.098,0.61,0,0.952,0.078,-0.16,0.06,0,0.081,-0.4,0.923,0,0.054,-0.56,1,0,0.066,0.04,0,0,0.088,0.27,0,0.292,0.075,-0.06,0,0
63856,20100302,-81.46,30.81,0.096,0.59,0,0.958,0.078,-0.16,0,0,0.081,-0.4,0.923,0,0.053,-0.57,1,0,0.065,0,0,0,0.087,0.25,0,0.232,0.075,-0.07,0,0
63856,20100303,-81.46,30.81,0.099,0.67,0,0.958,0.079,-0.11,0,0,0.082,-0.32,0.798,0.006,0.053,-0.59,1,0,0.065,-0.03,0,0,0.089,0.33,0,0.31,0.075,-0.02,0,0.083
63856,20100304,-81.46,30.81,0.099,0.7,0,0.958,0.08,-0.07,0,0,0.083,-0.23,0.655,0.006,0.053,-0.58,0.958,0,0.064,-0.07,0,0,0.09,0.38,0,0.381,0.076,0.02,0,0.101
63856,20100305,-81.46,30.81,0.099,0.71,0,0.958,0.08,-0.04,0,0,0.084,-0.16,0.536,0.006,0.054,-0.55,0.881,0,0.063,-0.09,0,0,0.09,0.4,0,0.44,0.076,0.05,0,0.101
63856,20100306,-81.46,30.81,0.099,0.71,0,0.958,0.08,-0.02,0,0,0.085,-0.11,0.435,0.006,0.054,-0.51,0.774,0,0.063,-0.12,0,0,0.09,0.42,0,0.53,0.076,0.08,0,0.101
63856,20100307,-81.46,30.81,0.099,0.72,0,0.958,0.08,0.01,0,0,0.085,-0.06,0.292,0.006,0.055,-0.46,0.685,0,0.063,-0.14,0,0,0.09,0.45,0,0.577,0.077,0.11,0,0.101
63856,20100308,-81.46,30.81,0.1,0.73,0,0.958,0.081,0.04,0,0,0.086,-0.01,0.155,0.006,0.055,-0.43,0.607,0,0.062,-0.14,0,0,0.09,0.48,0,0.577,0.077,0.14,0,0.101
63856,20100309,-81.46,30.81,0.1,0.74,0,1,0.081,0.06,0,0,0.086,0.03,0.012,0.006,0.055,-0.4,0.554,0,0.062,-0.14,0,0,0.09,0.51,0,0.577,0.077,0.18,0,0.101
63856,20100310,-81.46,30.81,0.096,0.62,0,0.935,0.079,0.01,0,0,0.085,-0.02,0,0,0.056,-0.36,0.53,0,0.062,-0.14,0,0,0.088,0.42,0,0.435,0.076,0.12,0,0.018
63856,20100311,-81.46,30.81,0.093,0.53,0,0.81,0.078,-0.04,0,0,0.084,-0.09,0.018,0,0.056,-0.35,0.554,0,0.062,-0.15,0,0,0.085,0.35,0,0.292,0.074,0.06,0,0
63856,20100312,-81.46,30.81,0.095,0.59,0,0.786,0.079,0,0,0.101,0.084,-0.05,0.036,0.095,0.055,-0.36,0.601,0,0.062,-0.14,0,0,0.087,0.42,0,0.262,0.075,0.11,0,0.107
63856,20100313,-81.46,30.81,0.096,0.64,0,0.786,0.08,0.06,0,0.244,0.086,0.05,0.036,0.238,0.056,-0.31,0.565,0,0.062,-0.13,0,0,0.088,0.5,0,0.304,0.076,0.18,0,0.25
63856,20100314,-81.46,30.81,0.098,0.69,0,0.786,0.081,0.12,0,0.387,0.087,0.13,0.036,0.375,0.057,-0.24,0.512,0,0.063,-0.12,0,0,0.089,0.57,0,0.399,0.077,0.25,0,0.393
63856,20100315,-81.46,30.81,0.099,0.72,0,0.786,0.081,0.16,0,0.411,0.088,0.2,0.036,0.44,0.057,-0.16,0.446,0,0.063,-0.12,0,0,0.09,0.62,0,0.542,0.078,0.3,0,0.488
63856,20100316,-81.46,30.81,0.099,0.75,0,0.786,0.082,0.2,0,0.411,0.089,0.26,0.036,0.446,0.058,-0.1,0.357,0,0.063,-0.1,0,0,0.091,0.67,0,0.685,0.078,0.36,0,0.5
63856,20100317,-81.46,30.81,0.1,0.79,0,0.851,0.082,0.24,0,0.411,0.09,0.31,0.036,0.446,0.058,-0.04,0.238,0,0.063,-0.08,0,0,0.091,0.72,0,0.827,0.079,0.41,0,0.5
63856,20100318,-81.46,30.81,0.101,0.82,0,0.976,0.083,0.28,0,0.411,0.09,0.36,0.018,0.446,0.059,0,0.113,0,0.063,-0.04,0,0,0.092,0.77,0,0.97,0.079,0.46,0,0.5
63856,20100319,-81.46,30.81,0.097,0.75,0,1,0.081,0.24,0,0.31,0.089,0.3,0,0.351,0.059,0.04,0,0,0.064,-0.01,0,0,0.089,0.7,0,1,0.078,0.43,0,0.393
63856,20100320,-81.46,30.81,0.094,0.69,0,1,0.08,0.17,0,0.167,0.086,0.2,0,0.208,0.059,0.03,0,0,0.064,0.01,0,0,0.087,0.63,0,0.994,0.077,0.37,0,0.25
63856,20100321,-81.46,30.81,0.092,0.65,0,1,0.078,0.12,0,0.024,0.085,0.12,0,0.071,0.058,-0.03,0.006,0,0.064,0.04,0,0,0.085,0.57,0,0.964,0.075,0.32,0,0.107
63856,20100322,-81.46,30.81,0.092,0.69,0,1,0.077,0.1,0,0.006,0.083,0.08,0,0.006,0.057,-0.09,0.065,0,0.065,0.08,0,0,0.085,0.58,0,0.946,0.075,0.32,0,0.113
63856,20100323,-81.46,30.81,0.093,0.74,0,1,0.077,0.1,0,0.006,0.083,0.07,0,0,0.056,-0.13,0.107,0,0.065,0.09,0,0,0.085,0.61,0,0.946,0.075,0.33,0,0.244
63856,20100324,-81.46,30.81,0.093,0.79,0,1,0.077,0.11,0,0.006,0.082,0.06,0,0,0.056,-0.16,0.107,0,0.065,0.1,0,0,0.085,0.64,0,0.946,0.075,0.34,0,0.345
63856,20100325,-81.46,30.81,0.093,0.83,0,1,0.077,0.11,0,0.006,0.082,0.06,0,0,0.056,-0.17,0.113,0,0.065,0.1,0,0,0.085,0.66,0,0.946,0.075,0.35,0,0.357
63856,20100326,-81.46,30.81,0.093,0.86,0,1,0.077,0.1,0,0.006,0.082,0.06,0,0,0.055,-0.18,0.113,0,0.064,0.1,0,0,0.085,0.67,0,0.946,0.074,0.35,0,0.357
63856,20100327,-81.46,30.81,0.093,0.89,0,1,0.076,0.09,0,0.006,0.082,0.06,0,0,0.055,-0.18,0.113,0,0.064,0.1,0,0,0.084,0.68,0,0.952,0.074,0.35,0,0.357
63856,20100328,-81.46,30.81,0.092,0.91,0,1,0.076,0.08,0,0.006,0.081,0.05,0,0,0.055,-0.17,0.107,0,0.064,0.09,0,0,0.084,0.67,0,0.982,0.074,0.35,0,0.357
63856,20100329,-81.46,30.81,0.09,0.89,0,1,0.075,0.05,0,0.012,0.081,0.03,0,0.006,0.055,-0.17,0.095,0,0.064,0.08,0,0,0.083,0.64,0,1,0.073,0.32,0,0.28
63856,20100330,-81.46,30.81,0.091,0.95,0,1,0.076,0.08,0,0.155,0.081,0.08,0,0.149,0.055,-0.18,0.113,0,0.064,0.07,0,0,0.083,0.69,0,1,0.073,0.35,0,0.28
63856,20100331,-81.46,30.81,0.092,1,0,1,0.076,0.11,0,0.256,0.082,0.13,0,0.292,0.055,-0.16,0.119,0,0.064,0.07,0,0,0.084,0.72,0,1,0.074,0.38,0,0.321
63856,20100401,-81.46,30.81,0.092,1.02,0,1,0.076,0.12,0,0.256,0.083,0.16,0,0.375,0.055,-0.15,0.113,0,0.064,0.07,0,0,0.084,0.73,0,1,0.074,0.4,0,0.452
63856,20100402,-81.46,30.81,0.091,1.03,0,1,0.077,0.14,0,0.256,0.083,0.18,0,0.375,0.055,-0.13,0.113,0,0.064,0.07,0,0,0.084,0.73,0,1,0.074,0.41,0,0.518
63856,20100403,-81.46,30.81,0.091,1.03,0,1,0.077,0.15,0,0.256,0.083,0.2,0,0.375,0.055,-0.12,0.113,0,0.063,0.06,0,0,0.084,0.72,0,1,0.074,0.41,0,0.518
63856,20100404,-81.46,30.81,0.091,1.02,0,1,0.076,0.16,0,0.256,0.083,0.21,0,0.375,0.055,-0.11,0.113,0,0.063,0.05,0,0,0.083,0.7,0,0.893,0.074,0.41,0,0.518
63856,20100405,-81.46,30.81,0.089,0.97,0,1,0.076,0.15,0,0.244,0.083,0.22,0,0.369,0.055,-0.1,0.065,0,0.063,0.06,0,0,0.082,0.66,0,0.75,0.073,0.39,0,0.494
63856,20100406,-81.46,30.81,0.083,0.81,0,0.893,0.073,0.07,0,0.101,0.08,0.11,0,0.226,0.055,-0.09,0.006,0,0.063,0.04,0,0,0.078,0.5,0,0.607,0.071,0.28,0,0.351
63856,20100407,-81.46,30.81,0.078,0.66,0,0.75,0.071,-0.01,0,0,0.078,0.02,0,0.083,0.054,-0.1,0,0,0.062,0.03,0,0,0.074,0.36,0,0.464,0.069,0.17,0,0.208
63856,20100408,-81.46,30.81,0.073,0.52,0,0.607,0.068,-0.08,0,0,0.076,-0.07,0,0,0.053,-0.13,0,0,0.062,0.03,0,0,0.071,0.23,0,0.321,0.067,0.07,0,0.065
63856,20100409,-81.46,30.81,0.068,0.39,0,0.464,0.066,-0.15,0.006,0,0.074,-0.14,0,0,0.053,-0.16,0,0,0.063,0.04,0,0,0.067,0.11,0,0.179,0.065,-0.02,0,0
63856,20100410,-81.46,30.81,0.063,0.25,0,0.321,0.063,-0.22,0.107,0,0.072,-0.21,0.042,0,0.052,-0.19,0.006,0,0.063,0.04,0,0,0.063,-0.02,0.119,0.036,0.063,-0.11,0.077,0
63856,20100411,-81.46,30.81,0.058,0.1,0.006,0.179,0.06,-0.31,0.25,0,0.07,-0.28,0.185,0,0.051,-0.21,0.012,0,0.062,0.04,0,0,0.059,-0.14,0.262,0,0.06,-0.2,0.22,0
63856,20100412,-81.46,30.81,0.052,-0.03,0.131,0.036,0.056,-0.39,0.393,0,0.068,-0.35,0.327,0,0.051,-0.24,0.054,0,0.062,0.03,0,0,0.054,-0.27,0.405,0,0.058,-0.3,0.363,0
63856,20100413,-81.46,30.81,0.047,-0.15,0.274,0,0.053,-0.48,0.536,0,0.067,-0.4,0.47,0,0.05,-0.26,0.119,0,0.062,0.02,0,0,0.05,-0.38,0.548,0,0.056,-0.38,0.506,0
63856,20100414,-81.46,30.81,0.043,-0.25,0.417,0,0.05,-0.52,0.655,0,0.065,-0.46,0.613,0,0.05,-0.29,0.161,0,0.062,0.01,0,0,0.047,-0.46,0.69,0,0.054,-0.45,0.649,0
63856,20100415,-81.46,30.81,0.039,-0.35,0.56,0,0.049,-0.54,0.78,0,0.063,-0.5,0.756,0,0.049,-0.3,0.232,0,0.061,-0.01,0,0,0.044,-0.52,0.833,0,0.052,-0.49,0.792,0
63856,20100416,-81.46,30.81,0.035,-0.42,0.702,0,0.046,-0.59,0.917,0,0.061,-0.53,0.899,0,0.048,-0.32,0.31,0,0.061,-0.04,0,0,0.041,-0.59,0.976,0,0.05,-0.55,0.935,0
63856,20100417,-81.46,30.81,0.032,-0.49,0.845,0,0.043,-0.63,0.958,0,0.059,-0.57,1,0,0.048,-0.33,0.399,0,0.061,-0.05,0,0,0.037,-0.65,1,0,0.049,-0.59,1,0
63856,20100418,-81.46,30.81,0.029,-0.54,0.982,0,0.04,-0.65,0.958,0,0.058,-0.59,1,0,0.047,-0.35,0.494,0,0.06,-0.08,0.018,0,0.035,-0.69,1,0,0.047,-0.62,1,0
63856,20100419,-81.46,30.81,0.027,-0.57,1,0,0.038,-0.66,0.958,0,0.056,-0.6,1,0,0.046,-0.36,0.577,0,0.06,-0.09,0.018,0,0.033,-0.71,1,0,0.045,-0.63,1,0
63856,20100420,-81.46,30.81,0.025,-0.58,1,0,0.038,-0.63,0.958,0,0.054,-0.61,1,0,0.046,-0.36,0.571,0,0.06,-0.11,0.018,0,0.031,-0.7,1,0,0.044,-0.63,1,0
63856,20100421,-81.46,30.81,0.023,-0.59,1,0,0.036,-0.63,0.982,0,0.052,-0.62,1,0,0.045,-0.36,0.565,0,0.059,-0.12,0.042,0,0.03,-0.7,1,0,0.043,-0.63,1,0
63856,20100422,-81.46,30.81,0.022,-0.57,1,0,0.034,-0.66,1,0,0.051,-0.63,1,0,0.045,-0.36,0.524,0,0.059,-0.16,0.173,0,0.028,-0.71,1,0,0.042,-0.64,1,0
63856,20100423,-81.46,30.81,0.022,-0.54,1,0,0.033,-0.63,1,0,0.049,-0.63,1,0,0.044,-0.36,0.452,0,0.058,-0.19,0.25,0,0.028,-0.69,1,0,0.041,-0.63,1,0
63856,20100424,-81.46,30.81,0.021,-0.51,1,0,0.033,-0.6,1,0,0.047,-0.63,1,0,0.043,-0.36,0.363,0,0.058,-0.2,0.25,0,0.027,-0.65,1,0,0.041,-0.62,1,0
63856,20100425,-81.46,30.81,0.021,-0.47,1,0,0.034,-0.56,1,0,0.046,-0.63,1,0,0.043,-0.36,0.304,0,0.057,-0.2,0.232,0,0.027,-0.61,1,0,0.04,-0.59,1,0
63856,20100426,-81.46,30.81,0.021,-0.44,1,0,0.034,-0.52,1,0,0.044,-0.63,1,0,0.042,-0.35,0.196,0,0.057,-0.21,0.286,0,0.028,-0.57,1,0,0.04,-0.57,1,0
63856,20100427,-81.46,30.81,0.021,-0.4,0.994,0,0.033,-0.51,1,0,0.043,-0.63,1,0,0.042,-0.35,0.137,0,0.056,-0.23,0.417,0,0.027,-0.55,1,0,0.039,-0.56,1,0
63856,20100428,-81.46,30.81,0.02,-0.38,0.994,0,0.032,-0.5,1,0,0.041,-0.63,1,0,0.041,-0.34,0.101,0,0.056,-0.22,0.393,0,0.026,-0.54,1,0,0.038,-0.55,1,0
63856,20100429,-81.46,30.81,0.02,-0.36,0.994,0,0.031,-0.49,1,0,0.039,-0.62,1,0,0.04,-0.34,0.071,0,0.056,-0.2,0.268,0,0.025,-0.52,1,0,0.037,-0.53,0.97,0
63856,20100430,-81.46,30.81,0.019,-0.34,0.988,0,0.03,-0.47,0.988,0,0.038,-0.61,0.97,0,0.04,-0.33,0.065,0,0.056,-0.19,0.202,0,0.025,-0.51,1,0,0.036,-0.52,0.851,0
63856,20100501,-81.46,30.81,0.019,-0.33,0.982,0,0.029,-0.45,0.964,0,0.036,-0.6,0.97,0,0.039,-0.33,0.06,0,0.056,-0.2,0.262,0,0.024,-0.49,1,0,0.036,-0.5,0.726,0
63856,20100502,-81.46,30.81,0.019,-0.31,0.97,0,0.028,-0.44,0.917,0,0.035,-0.59,0.97,0,0.038,-0.31,0.018,0,0.055,-0.21,0.268,0,0.023,-0.48,1,0,0.035,-0.49,0.607,0
63856,20100503,-81.46,30.81,0.018,-0.31,0.97,0,0.027,-0.43,0.917,0,0.034,-0.58,0.97,0,0.037,-0.3,0,0,0.055,-0.2,0.214,0,0.023,-0.47,1,0,0.034,-0.48,0.554,0
63856,20100504,-81.46,30.81,0.018,-0.31,0.976,0,0.026,-0.43,0.917,0,0.032,-0.58,0.97,0,0.036,-0.3,0,0,0.055,-0.18,0.083,0,0.022,-0.47,1,0,0.033,-0.48,0.554,0
63856,20100505,-81.46,30.81,0.018,-0.31,0.976,0,0.025,-0.43,0.917,0,0.031,-0.59,0.97,0,0.035,-0.31,0,0,0.054,-0.19,0.095,0,0.021,-0.47,1,0,0.033,-0.49,0.554,0
63856,20100506,-81.46,30.81,0.019,-0.28,0.839,0,0.024,-0.44,0.917,0,0.03,-0.59,0.97,0,0.034,-0.31,0,0,0.054,-0.21,0.22,0,0.022,-0.46,1,0,0.032,-0.49,0.583,0
63856,20100507,-81.46,30.81,0.019,-0.26,0.768,0,0.024,-0.46,0.929,0,0.029,-0.61,1,0,0.033,-0.32,0,0,0.053,-0.22,0.244,0,0.022,-0.46,1,0,0.032,-0.51,0.702,0
63856,20100508,-81.46,30.81,0.02,-0.25,0.756,0,0.023,-0.48,0.952,0,0.028,-0.62,1,0,0.032,-0.34,0.006,0,0.053,-0.21,0.19,0,0.021,-0.46,1,0,0.031,-0.52,0.827,0
63856,20100509,-81.46,30.81,0.02,-0.26,0.768,0,0.022,-0.5,1,0,0.027,-0.65,1,0,0.031,-0.36,0.024,0,0.053,-0.22,0.196,0,0.021,-0.47,1,0,0.03,-0.54,0.946,0
63856,20100510,-81.46,30.81,0.019,-0.28,0.768,0,0.021,-0.52,1,0,0.026,-0.66,1,0,0.029,-0.39,0.119,0,0.052,-0.23,0.214,0,0.02,-0.49,1,0,0.03,-0.57,1,0
63856,20100511,-81.46,30.81,0.019,-0.31,0.768,0,0.021,-0.53,1,0,0.025,-0.68,1,0,0.028,-0.41,0.256,0,0.052,-0.24,0.226,0,0.02,-0.49,1,0,0.029,-0.58,1,0
63856,20100512,-81.46,30.81,0.018,-0.34,0.768,0,0.02,-0.54,1,0,0.024,-0.68,1,0,0.027,-0.43,0.399,0,0.051,-0.24,0.232,0,0.019,-0.5,1,0,0.028,-0.6,1,0
63856,20100513,-81.46,30.81,0.016,-0.41,0.905,0,0.019,-0.55,1,0,0.024,-0.69,1,0,0.026,-0.46,0.542,0,0.051,-0.22,0.101,0,0.018,-0.52,1,0,0.027,-0.61,1,0
63856,20100514,-81.46,30.81,0.015,-0.47,0.982,0,0.019,-0.54,1,0,0.023,-0.69,1,0,0.025,-0.49,0.685,0,0.051,-0.23,0.137,0,0.017,-0.53,1,0,0.026,-0.62,1,0
63856,20100515,-81.46,30.81,0.014,-0.52,1,0,0.018,-0.54,1,0,0.022,-0.68,1,0,0.024,-0.52,0.821,0,0.05,-0.24,0.19,0,0.016,-0.54,1,0,0.025,-0.64,1,0
63856,20100516,-81.46,30.81,0.013,-0.56,1,0,0.017,-0.54,1,0,0.021,-0.67,1,0,0.022,-0.55,0.946,0,0.05,-0.25,0.185,0,0.015,-0.54,1,0,0.024,-0.64,1,0
63856,20100517,-81.46,30.81,0.012,-0.58,1,0,0.016,-0.53,1,0,0.02,-0.66,1,0,0.02,-0.58,0.994,0,0.049,-0.26,0.232,0,0.014,-0.53,1,0,0.024,-0.65,1,0
63856,20100518,-81.46,30.81,0.016,-0.42,0.899,0.077,0.019,-0.44,0.923,0.077,0.026,-0.51,0.923,0.077,0.021,-0.56,0.929,0,0.049,-0.27,0.268,0,0.017,-0.42,0.917,0.077,0.026,-0.55,0.923,0.077
63856,20100519,-81.46,30.81,0.023,-0.16,0.756,0.22,0.025,-0.3,0.78,0.202,0.036,-0.31,0.78,0.22,0.022,-0.5,0.786,0,0.049,-0.26,0.25,0,0.024,-0.24,0.774,0.22,0.031,-0.39,0.78,0.22
63856,20100520,-81.46,30.81,0.028,0.06,0.613,0.363,0.03,-0.16,0.637,0.286,0.044,-0.14,0.637,0.363,0.025,-0.41,0.643,0,0.049,-0.22,0.25,0,0.029,-0.08,0.631,0.363,0.035,-0.24,0.637,0.256
63856,20100521,-81.46,30.81,0.033,0.24,0.47,0.506,0.035,-0.03,0.494,0.315,0.051,0.01,0.494,0.393,0.028,-0.32,0.5,0,0.049,-0.17,0.179,0,0.034,0.07,0.488,0.482,0.039,-0.1,0.494,0.256
63856,20100522,-81.46,30.81,0.037,0.39,0.327,0.601,0.04,0.08,0.351,0.315,0.058,0.14,0.351,0.393,0.03,-0.23,0.357,0,0.05,-0.12,0.119,0,0.039,0.19,0.345,0.482,0.043,0.02,0.351,0.256
63856,20100523,-81.46,30.81,0.04,0.51,0.185,0.601,0.045,0.18,0.208,0.315,0.064,0.26,0.208,0.393,0.034,-0.13,0.214,0,0.05,-0.09,0.113,0,0.043,0.29,0.202,0.482,0.047,0.14,0.208,0.256
63856,20100524,-81.46,30.81,0.043,0.62,0.042,0.607,0.048,0.25,0.065,0.315,0.07,0.36,0.065,0.393,0.037,-0.04,0.071,0,0.05,-0.05,0.048,0,0.046,0.37,0.06,0.482,0.05,0.24,0.065,0.256
63856,20100525,-81.46,30.81,0.041,0.55,0,0.53,0.047,0.22,0,0.238,0.068,0.32,0,0.315,0.038,0.01,0,0,0.051,-0.01,0,0,0.044,0.32,0,0.405,0.049,0.22,0,0.179
63856,20100526,-81.46,30.81,0.037,0.37,0,0.387,0.044,0.13,0,0.113,0.062,0.22,0,0.173,0.038,0,0,0,0.051,0.01,0,0,0.04,0.2,0,0.262,0.046,0.14,0,0.036
63856,20100527,-81.46,30.81,0.033,0.22,0,0.244,0.041,0.05,0.006,0.03,0.058,0.13,0,0.03,0.036,-0.02,0,0,0.051,0,0,0,0.037,0.1,0,0.119,0.044,0.07,0,0
63856,20100528,-81.46,30.81,0.029,0.1,0,0.101,0.037,-0.04,0.042,0,0.054,0.06,0,0,0.035,-0.06,0,0,0.05,-0.02,0,0,0.033,-0.01,0.065,0,0.041,-0.01,0,0
63856,20100529,-81.46,30.81,0.027,0,0.036,0.006,0.033,-0.14,0.185,0,0.05,-0.03,0,0,0.033,-0.1,0,0,0.049,-0.05,0,0,0.03,-0.12,0.208,0,0.038,-0.08,0,0
63856,20100530,-81.46,30.81,0.024,-0.08,0.179,0.006,0.03,-0.23,0.321,0,0.046,-0.11,0.083,0,0.032,-0.13,0,0,0.049,-0.06,0,0,0.027,-0.21,0.351,0,0.036,-0.15,0.101,0
63856,20100531,-81.46,30.81,0.022,-0.16,0.321,0,0.028,-0.3,0.464,0,0.042,-0.2,0.226,0,0.03,-0.16,0,0,0.048,-0.08,0,0,0.025,-0.3,0.494,0,0.034,-0.21,0.244,0
63856,20100601,-81.46,30.81,0.02,-0.23,0.464,0,0.026,-0.34,0.607,0,0.039,-0.28,0.369,0,0.029,-0.19,0,0,0.047,-0.11,0,0,0.023,-0.37,0.637,0,0.032,-0.26,0.387,0
63856,20100602,-81.46,30.81,0.019,-0.27,0.548,0,0.025,-0.4,0.75,0,0.035,-0.36,0.512,0,0.027,-0.23,0,0,0.047,-0.14,0,0,0.022,-0.42,0.78,0,0.031,-0.31,0.53,0
63856,20100603,-81.46,30.81,0.022,-0.23,0.548,0,0.022,-0.46,0.887,0,0.032,-0.44,0.655,0,0.026,-0.26,0,0,0.046,-0.16,0,0,0.022,-0.45,0.881,0,0.029,-0.35,0.673,0
63856,20100604,-81.46,30.81,0.025,-0.17,0.548,0.03,0.022,-0.48,0.923,0,0.029,-0.5,0.798,0,0.024,-0.3,0.018,0,0.045,-0.19,0,0,0.023,-0.43,0.875,0,0.029,-0.37,0.738,0
63856,20100605,-81.46,30.81,0.03,-0.05,0.512,0.173,0.024,-0.46,0.78,0,0.028,-0.53,0.94,0,0.023,-0.33,0.125,0,0.045,-0.21,0,0,0.027,-0.37,0.732,0,0.03,-0.36,0.738,0
63856,20100606,-81.46,30.81,0.036,0.09,0.369,0.292,0.025,-0.44,0.643,0,0.028,-0.54,0.935,0,0.021,-0.37,0.232,0,0.044,-0.23,0.006,0,0.031,-0.3,0.589,0,0.031,-0.34,0.637,0
63856,20100607,-81.46,30.81,0.044,0.29,0.226,0.435,0.029,-0.38,0.5,0,0.031,-0.5,0.792,0,0.02,-0.41,0.339,0,0.043,-0.23,0.006,0,0.036,-0.18,0.446,0,0.033,-0.28,0.494,0
63856,20100608,-81.46,30.81,0.051,0.47,0.083,0.577,0.033,-0.31,0.357,0,0.036,-0.41,0.649,0,0.019,-0.43,0.464,0,0.043,-0.25,0.006,0,0.042,-0.06,0.304,0,0.036,-0.22,0.351,0
63856,20100609,-81.46,30.81,0.055,0.58,0,0.637,0.037,-0.25,0.214,0,0.041,-0.33,0.506,0,0.019,-0.46,0.607,0,0.042,-0.25,0.006,0,0.046,0.02,0.161,0,0.039,-0.17,0.208,0
63856,20100610,-81.46,30.81,0.055,0.57,0,0.637,0.04,-0.21,0.071,0,0.046,-0.26,0.363,0,0.018,-0.48,0.75,0,0.042,-0.25,0.006,0,0.048,0.04,0.06,0,0.04,-0.14,0.065,0
63856,20100611,-81.46,30.81,0.054,0.51,0,0.607,0.04,-0.22,0.125,0,0.05,-0.21,0.22,0,0.018,-0.5,0.875,0,0.041,-0.25,0.006,0,0.047,0.01,0.06,0,0.041,-0.15,0.095,0
63856,20100612,-81.46,30.81,0.05,0.42,0,0.464,0.039,-0.25,0.268,0,0.051,-0.2,0.077,0,0.018,-0.51,0.911,0,0.041,-0.26,0.006,0,0.045,-0.04,0.107,0,0.04,-0.18,0.232,0
63856,20100613,-81.46,30.81,0.048,0.34,0,0.345,0.037,-0.3,0.411,0,0.052,-0.2,0.131,0,0.018,-0.53,0.946,0,0.04,-0.27,0.012,0,0.042,-0.1,0.179,0,0.039,-0.22,0.375,0
63856,20100614,-81.46,30.81,0.042,0.17,0.024,0.202,0.033,-0.39,0.554,0,0.05,-0.25,0.274,0,0.018,-0.54,0.982,0,0.04,-0.28,0.024,0,0.038,-0.22,0.315,0,0.037,-0.29,0.518,0
63856,20100615,-81.46,30.81,0.035,-0.01,0.137,0.06,0.029,-0.48,0.696,0,0.045,-0.35,0.417,0,0.018,-0.56,1,0,0.039,-0.3,0.107,0,0.032,-0.35,0.458,0,0.033,-0.39,0.661,0
63856,20100616,-81.46,30.81,0.031,-0.14,0.28,0,0.025,-0.57,0.839,0,0.04,-0.46,0.56,0,0.018,-0.58,1,0,0.038,-0.32,0.22,0,0.028,-0.46,0.601,0,0.03,-0.48,0.804,0
63856,20100617,-81.46,30.81,0.028,-0.24,0.423,0,0.022,-0.65,0.982,0,0.035,-0.56,0.702,0,0.017,-0.61,1,0,0.038,-0.34,0.333,0,0.025,-0.55,0.744,0,0.028,-0.56,0.946,0
63856,20100618,-81.46,30.81,0.025,-0.32,0.565,0,0.02,-0.71,1,0,0.031,-0.66,0.845,0,0.017,-0.62,1,0,0.037,-0.36,0.464,0,0.023,-0.62,0.827,0,0.026,-0.63,0.994,0
63856,20100619,-81.46,30.81,0.022,-0.41,0.708,0,0.019,-0.76,1,0,0.027,-0.74,0.988,0,0.016,-0.64,1,0,0.036,-0.39,0.607,0,0.02,-0.71,0.923,0,0.024,-0.71,1,0
63856,20100620,-81.46,30.81,0.018,-0.53,0.851,0,0.017,-0.81,1,0,0.024,-0.83,1,0,0.016,-0.66,1,0,0.035,-0.42,0.738,0,0.018,-0.79,0.994,0,0.022,-0.79,1,0
63856,20100621,-81.46,30.81,0.016,-0.6,0.97,0,0.016,-0.87,1,0,0.021,-0.91,1,0,0.015,-0.68,1,0,0.033,-0.45,0.869,0,0.016,-0.87,1,0,0.02,-0.86,1,0
63856,20100622,-81.46,30.81,0.015,-0.65,1,0,0.014,-0.92,1,0,0.019,-0.98,1,0,0.014,-0.7,1,0,0.032,-0.48,0.929,0,0.014,-0.93,1,0,0.019,-0.93,1,0
63856,20100623,-81.46,30.81,0.014,-0.69,1,0,0.013,-0.96,1,0,0.017,-1.04,1,0,0.013,-0.73,1,0,0.031,-0.51,0.958,0,0.013,-0.97,1,0,0.018,-0.99,1,0
63856,20100624,-81.46,30.81,0.013,-0.72,1,0,0.012,-0.99,1,0,0.015,-1.09,1,0,0.013,-0.75,1,0,0.029,-0.55,0.988,0,0.012,-1,1,0,0.016,-1.04,1,0
63856,20100625,-81.46,30.81,0.013,-0.74,1,0,0.011,-1.01,1,0,0.014,-1.12,1,0,0.012,-0.79,1,0,0.028,-0.58,1,0,0.012,-1.02,1,0,0.015,-1.08,1,0
63856,20100626,-81.46,30.81,0.013,-0.75,1,0,0.01,-1,1,0,0.013,-1.15,1,0,0.011,-0.82,1,0,0.026,-0.62,1,0,0.011,-1.02,1,0,0.015,-1.11,1,0
63856,20100627,-81.46,30.81,0.012,-0.76,1,0,0.01,-0.99,1,0,0.013,-1.17,1,0,0.01,-0.85,1,0,0.025,-0.65,1,0,0.011,-1.02,1,0,0.014,-1.14,1,0
63856,20100628,-81.46,30.81,0.012,-0.78,1,0,0.01,-0.97,1,0,0.012,-1.18,1,0,0.01,-0.88,1,0,0.024,-0.68,1,0,0.011,-1.01,1,0,0.014,-1.15,1,0